Temperature
24 24 24 24 24 24 24 24 23 23 23 23 24 23 23 22 21 21 20 19 19 18 18 17 17 17 17 17 16 16 16 16 15 15 15 15 15 15 14 14 14 14 14 13
24 24 24 24 24 24 24 25 24 24 23 25 24 24 23 22 21 21 20 20 19 18 18 18 17 17 17 16 16 16 16 16 15 15 15 15 14 14 14 14 14 13 13 13
23 24 24 23 24 25 25 25 25 24 24 24 24 23 23 22 21 20 20 20 19 19 18 18 17 17 17 16 16 16 16 15 15 15 15 14 14 14 14 13 13 13 13 13
23 23 22 24 26 26 25 25 25 25 24 24 24 23 22 22 21 20 20 19 19 19 19 18 18 17 17 16 16 16 15 15 15 15 14 14 14 14 13 13 13 13 13 13
22 22 23 24 26 26 25 24 25 25 25 24 24 23 22 21 21 20 20 19 19 19 18 18 18 17 17 16 16 16 15 15 15 15 14 14 14 13 13 13 13 12 12 12
22 22 22 24 25 26 25 23 25 25 24 24 23 21 21 21 20 20 19 19 19 18 18 18 17 17 16 16 16 15 15 15 14 14 14 14 13 13 13 13 12 12 12 12
22 22 23 24 25 25 23 23 24 24 23 23 22 22 21 20 20 19 19 18 18 18 18 17 17 17 16 16 16 15 15 14 14 14 14 13 13 13 13 12 12 12 12 11
23 22 22 24 24 24 23 24 23 23 22 22 21 21 20 20 19 18 18 18 17 17 17 17 16 16 16 16 15 15 14 14 14 13 13 13 13 13 12 12 12 11 11 11
23 22 23 23 23 23 23 23 22 22 21 21 20 20 19 18 18 18 17 17 17 16 16 16 16 15 15 15 15 14 14 14 13 13 13 12 12 12 12 11 11 11 11 10
23 23 23 22 22 22 22 22 21 21 20 20 20 19 18 18 17 17 16 16 16 16 15 15 15 15 15 15 14 14 14 13 13 12 12 12 12 11 11 11 11 10 10 10
22 22 22 22 22 21 21 21 20 20 20 19 19 18 18 17 17 16 16 16 15 15 15 15 15 15 14 14 14 13 13 12 12 12 12 11 11 11 11 10 10 10 10 10
22 22 22 21 21 20 20 20 20 19 19 19 18 18 17 17 16 16 15 15 15 15 15 14 14 14 14 14 13 13 12 12 12 11 11 11 11 10 10 10 10 10 10 10
22 21 21 20 20 20 19 19 19 18 18 18 17 17 17 16 16 15 15 14 14 14 14 14 14 13 13 13 12 12 12 11 11 11 11 10 10 10 10 10 9 9 9 9
20 20 20 19 19 19 19 18 18 18 18 17 17 16 16 15 15 15 14 14 14 14 13 13 13 13 12 12 12 11 11 11 11 10 10 10 9 9 9 9 9 9 9 9
19 19 19 19 18 18 18 17 17 17 17 16 16 16 15 15 15 14 14 14 13 13 13 13 12 12 12 11 11 11 11 10 10 10 10 9 9 9 9 8 8 8 8 8
18 18 18 18 17 17 17 17 16 16 16 16 15 15 15 14 14 14 13 13 13 12 12 12 12 12 11 11 11 10 10 10 10 9 9 9 8 8 8 8 8 8 8 7
18 17 17 17 17 16 16 16 16 16 15 15 15 15 14 14 13 13 13 12 12 12 12 12 12 11 11 10 10 10 10 9 9 9 8 8 8 8 8 7 7 7 7 7
17 17 16 16 16 16 16 16 15 15 15 14 14 14 13 13 13 12 12 12 12 11 11 11 11 11 10 10 10 9 9 9 9 8 8 8 7 7 7 7 7 7 6 6
16 16 16 16 15 15 15 15 15 14 14 14 13 13 13 13 12 12 12 11 11 11 11 11 11 10 10 9 9 9 9 8 8 8 8 7 7 7 7 7 6 6 6 6
15 15 15 15 15 15 15 14 14 14 13 13 13 12 12 12 12 11 11 11 11 11 10 10 10 10 9 9 9 9 8 8 8 7 7 7 7 6 6 6 6 6 5 5
15 14 14 14 14 14 14 14 13 13 13 12 12 12 12 11 11 11 11 10 10 10 10 10 9 9 9 9 8 8 7 7 7 7 6 6 6 6 6 5 5 5 5 5
14 14 13 13 13 13 13 13 13 12 12 12 12 11 11 11 10 10 10 10 10 9 9 9 9 9 8 8 8 7 7 6 6 6 6 6 5 5 5 5 4 4 4 4
13 13 13 13 13 12 12 12 12 12 12 11 11 11 10 10 10 9 9 9 9 9 9 8 8 8 8 7 7 7 6 6 6 6 5 5 5 5 4 4 4 4 3 3
12 12 12 12 12 12 11 11 11 11 11 11 10 10 10 9 9 9 9 9 8 8 8 8 8 7 7 7 6 6 6 5 5 5 5 4 4 4 4 3 3 3 3 2
12 12 11 11 11 11 11 11 10 10 10 10 10 9 9 9 9 8 8 8 8 8 7 7 7 6 6 6 5 5 5 5 5 4 4 4 3 3 3 3 3 2 2 2
11 11 11 11 11 10 10 10 10 9 9 9 9 9 8 8 8 8 8 7 7 7 7 6 6 6 5 5 5 5 4 4 4 4 3 3 3 3 3 2 2 2 2 1
10 10 10 10 10 10 10 9 9 9 9 9 8 8 8 8 7 7 7 7 6 6 6 6 6 5 5 5 4 4 4 3 3 3 3 3 2 2 2 2 1 1 1 1
Wind_Speed
5 5 4 5 6 6 7 7 5 3 4 6 6 8 10 11 12 12 12 12 12 11 9 8 7 7 6 6 6 5 5 5 4 4 3 3 2 2 2 3 4 3 3 3
7 7 7 8 8 8 8 7 6 4 3 4 7 7 9 11 11 12 12 12 13 12 11 9 8 8 7 6 6 6 5 5 4 4 3 3 2 2 3 3 3 3 3 3
7 6 7 8 8 8 7 6 5 5 4 6 8 8 9 11 11 11 11 11 11 11 11 10 9 8 8 7 6 6 5 5 4 4 3 2 2 2 2 2 2 3 3 3
6 7 8 4 3 5 5 6 5 4 5 7 8 8 8 9 10 10 10 10 10 9 9 9 9 8 7 7 7 6 6 5 4 3 3 2 2 1 1 1 1 1 2 2
6 7 6 5 4 4 4 3 3 5 6 8 8 8 7 9 9 9 9 8 7 8 8 8 9 9 8 7 6 6 5 5 4 4 3 3 2 0 0 1 1 0 0 0
6 7 6 2 3 2 2 3 1 4 6 7 9 7 6 9 10 9 9 8 7 7 8 8 7 8 8 7 6 5 5 5 4 4 4 3 2 1 1 1 1 1 1 0
9 8 4 1 3 3 3 1 3 5 6 7 6 4 7 11 10 9 9 9 8 8 7 6 6 6 7 7 6 5 5 5 5 4 4 3 2 1 0 0 1 1 1 1
8 8 3 2 3 2 3 5 5 5 6 6 6 7 9 11 10 10 9 9 9 8 7 6 6 6 6 6 6 6 5 5 4 4 3 3 3 1 0 0 0 1 1 1
2 1 3 3 3 5 5 5 5 5 6 8 7 8 10 10 10 10 10 9 7 8 7 6 5 5 6 5 6 6 5 4 4 4 3 3 3 2 1 0 1 1 1 1
2 2 3 3 4 3 3 4 4 5 7 7 7 9 9 9 9 9 8 8 7 8 8 6 5 5 6 6 5 5 5 4 4 3 3 3 2 1 1 0 1 1 2 2
4 2 2 2 2 3 3 4 5 6 5 6 7 8 8 8 8 9 8 7 7 7 7 7 6 6 6 5 5 4 4 4 3 3 3 3 2 1 1 1 1 0 1 1
4 3 3 3 3 4 3 4 5 5 6 6 6 7 8 8 7 8 8 7 7 7 7 7 6 6 6 5 4 4 4 3 3 2 2 2 1 1 1 1 2 2 2 2
1 1 2 3 3 4 4 4 4 4 6 6 6 7 7 7 7 7 8 7 8 7 7 7 7 6 6 4 4 4 3 3 2 2 2 1 1 1 1 2 3 4 5 5
3 3 2 2 2 3 4 4 4 4 5 6 6 7 7 7 7 7 7 7 7 7 7 7 7 6 5 4 4 3 4 3 2 2 1 1 1 1 1 2 2 3 5 7
2 2 2 3 3 3 4 5 5 5 6 5 6 7 8 8 7 7 7 7 7 7 7 7 6 5 5 5 4 3 3 2 2 1 1 1 1 1 1 2 2 3 2 3
4 3 3 4 4 4 5 6 6 6 6 6 6 7 7 7 7 6 6 7 7 7 7 6 6 5 5 5 4 3 2 3 2 0 1 1 1 1 2 2 3 3 3 3
5 5 5 5 5 5 5 5 5 6 6 6 6 7 7 7 7 6 6 6 6 6 6 6 5 5 5 5 3 2 2 2 2 1 1 1 1 2 2 2 3 3 3 3
5 5 5 5 5 5 5 5 5 5 5 6 6 7 7 7 7 6 6 6 6 5 5 6 5 5 5 4 3 2 1 1 2 2 1 1 1 2 3 3 3 4 3 4
4 4 4 4 4 4 5 5 5 5 6 7 7 7 6 6 6 6 6 6 6 5 5 6 7 5 4 4 3 2 1 1 1 1 1 1 2 2 3 3 4 4 4 3
3 4 4 4 4 3 4 5 5 5 6 7 7 6 6 6 6 7 6 5 4 4 5 6 5 4 4 3 3 1 1 1 1 1 1 1 2 3 3 3 4 4 4 3
4 4 4 4 4 4 4 5 5 6 6 6 6 6 6 6 6 6 6 4 5 6 6 6 4 3 3 3 2 1 0 1 1 1 1 2 2 3 3 4 4 4 4 4
4 4 5 4 5 4 4 5 5 6 6 6 6 6 6 6 6 5 4 4 6 8 6 4 4 4 3 2 1 1 0 1 1 1 1 2 2 3 4 4 4 4 4 4
4 4 5 5 5 5 5 5 6 6 6 6 6 6 6 5 5 5 4 4 6 7 5 3 5 5 3 1 1 1 1 1 1 2 2 2 3 3 4 4 4 4 4 4
4 4 4 4 4 5 5 5 5 5 6 5 5 5 5 5 4 4 4 7 8 7 4 5 6 4 1 1 1 1 1 1 1 2 2 3 3 3 3 3 4 4 4 5
3 4 4 4 5 4 5 6 6 6 6 5 5 5 4 4 5 5 5 5 7 6 4 4 4 2 1 1 1 1 1 1 2 2 2 3 3 3 3 3 3 4 4 4
3 3 3 3 3 3 4 5 4 5 5 5 5 5 5 5 6 5 5 5 5 5 4 3 3 2 1 0 0 1 1 1 2 2 2 3 3 3 3 3 5 4 4 5
3 3 3 3 3 3 3 4 4 4 5 5 6 5 5 5 5 5 5 4 4 3 3 3 2 2 1 1 1 1 1 1 1 2 2 2 3 3 3 4 4 4 4 5
Wind_Direction
247 244 250 242 241 236 236 245 261 251 184 182 174 160 152 148 149 153 153 153 153 154 153 156 151 143 137 132 131 130 123 113 106 97 88 76 60 59 41 27 22 25 42 39
260 239 239 254 243 237 239 243 242 238 239 183 160 156 153 152 153 156 156 157 158 157 155 159 153 145 139 140 141 136 128 122 117 107 99 91 70 45 50 46 14 9 28 52
272 263 249 249 239 228 228 235 228 228 218 161 157 162 160 157 158 158 158 156 157 160 160 161 154 150 149 150 145 139 133 127 125 123 114 112 108 83 66 64 29 7 15 50
263 257 254 250 209 202 215 239 232 202 172 164 160 149 147 150 156 158 155 156 157 156 152 151 147 146 148 148 146 145 141 135 134 135 131 122 100 88 87 85 79 43 24 33
255 257 261 237 209 199 206 234 229 187 166 159 148 132 138 143 148 147 148 149 147 146 142 142 143 144 146 147 145 140 136 137 136 130 124 117 111 86 12 39 47 339 139 55
259 260 264 213 151 142 213 237 171 133 137 148 150 156 155 145 141 139 138 137 133 132 131 133 138 145 150 149 144 139 136 134 128 125 129 138 148 139 37 50 356 326 353 26
251 258 266 80 116 162 213 192 107 123 131 142 154 145 136 135 132 129 127 127 124 122 122 127 133 139 145 142 141 135 129 127 129 135 145 143 130 114 99 48 339 320 332 356
231 243 238 101 138 149 66 78 90 108 125 125 119 111 120 127 127 128 124 123 124 124 121 115 118 127 128 123 118 114 116 120 131 143 150 129 121 125 131 37 284 294 315 328
248 171 99 99 82 67 69 80 83 93 107 117 123 123 124 129 132 133 132 130 128 128 125 118 116 120 119 115 117 122 126 134 142 143 130 124 134 153 162 221 262 292 317 307
235 164 128 117 93 83 81 85 91 99 109 118 121 127 132 136 137 135 132 132 134 136 135 134 130 123 118 118 125 137 145 148 142 135 127 120 110 116 116 45 345 343 349 339
246 220 162 161 136 109 96 98 102 108 117 122 127 134 137 139 141 141 138 138 139 141 143 142 134 125 122 125 131 141 141 131 126 117 112 102 95 69 103 88 124 159 326 328
237 213 212 165 135 123 125 125 123 125 128 127 134 140 142 142 140 141 143 142 142 145 145 143 137 131 132 138 144 146 137 131 121 113 110 115 123 54 37 173 170 177 213 241
286 81 101 109 117 129 129 124 124 129 139 141 141 140 139 138 140 143 145 146 149 148 146 143 137 135 136 139 143 137 125 117 113 116 121 145 179 202 262 272 254 251 252 255
101 101 119 132 133 136 139 137 134 137 138 140 142 138 137 138 141 146 150 149 147 147 145 141 137 138 137 131 124 123 117 117 114 115 129 187 233 246 249 258 272 271 256 255
167 166 151 127 128 144 147 148 148 149 143 142 141 142 144 147 149 149 147 146 144 144 142 141 140 138 131 128 128 127 119 123 121 124 151 221 253 268 278 287 287 283 282 272
177 163 158 165 172 170 171 166 161 159 153 153 150 148 147 144 142 142 145 148 149 150 148 145 142 134 125 122 124 125 123 129 117 149 237 242 256 270 278 281 288 294 293 292
176 179 181 187 186 183 181 176 170 165 162 161 154 147 144 144 145 147 145 143 142 141 140 137 134 130 130 129 130 132 132 149 178 224 241 250 268 286 287 285 287 290 286 286
193 194 192 193 189 184 180 173 166 161 161 156 147 147 154 158 156 152 146 142 139 139 140 133 126 129 130 128 128 132 150 176 201 221 243 260 289 292 293 289 288 291 288 287
179 179 179 180 179 178 177 168 159 153 151 150 153 159 161 158 152 151 149 149 149 150 141 126 132 138 131 124 122 136 171 210 246 260 268 281 283 279 284 286 286 285 288 292
162 161 160 160 159 157 158 148 145 147 150 154 158 162 164 161 156 154 154 156 152 140 132 131 140 139 132 125 115 141 190 221 253 272 276 270 277 285 287 288 291 294 296 296
160 154 155 154 145 144 145 146 147 150 151 156 162 163 160 157 158 156 151 148 134 123 129 137 139 127 119 118 129 155 196 261 273 276 282 287 293 298 300 302 306 307 308 309
164 160 156 150 147 149 150 149 147 149 154 158 157 155 151 151 147 139 131 136 128 127 131 135 121 115 116 111 135 141 228 286 296 301 300 300 301 301 302 306 307 309 312 312
168 161 160 162 162 154 143 144 145 147 150 153 156 156 150 141 142 145 142 127 126 126 124 121 120 122 124 140 162 193 239 268 280 288 292 292 295 299 302 305 308 311 311 311
164 162 162 159 154 154 156 148 141 141 139 135 137 139 137 133 129 120 117 125 127 123 119 128 129 132 149 201 202 215 234 259 280 291 298 299 298 299 301 305 308 310 312 315
163 162 164 164 166 162 156 147 145 144 139 137 135 131 129 124 125 121 119 122 125 124 123 140 148 165 215 224 220 250 274 280 295 304 293 291 292 297 303 307 312 314 314 311
163 161 163 166 151 142 150 152 154 151 149 144 139 130 120 114 114 119 126 133 134 129 135 149 165 192 225 230 276 289 284 294 300 296 293 300 305 309 308 312 313 313 308 304
147 139 134 134 131 144 150 151 153 154 151 146 140 133 131 131 131 133 135 141 142 141 140 146 158 179 195 189 217 274 289 290 302 308 309 312 314 314 313 313 311 307 305 303
Height
1491 1489 1489 1491 1491 1491 1494 1496 1501 1500 1499 1498 1497 1499 1503 1508 1512 1517 1521 1525 1529 1533 1536 1540 1543 1545 1547 1549 1550 1552 1553 1554 1555 1556 1557 1558 1558 1558 1558 1558 1559 1559 1558 1558
1491 1486 1487 1489 1488 1488 1490 1490 1492 1494 1496 1491 1495 1498 1502 1507 1511 1515 1520 1524 1528 1531 1535 1538 1541 1543 1546 1548 1550 1551 1552 1553 1555 1555 1556 1556 1557 1557 1557 1557 1558 1558 1557 1557
1494 1486 1487 1493 1485 1484 1486 1485 1487 1494 1493 1490 1494 1497 1501 1505 1510 1514 1518 1522 1526 1529 1533 1536 1539 1542 1544 1546 1548 1550 1551 1552 1553 1554 1555 1555 1556 1556 1556 1556 1556 1556 1556 1556
1492 1493 1504 1487 1474 1476 1481 1481 1481 1484 1486 1489 1492 1496 1500 1504 1508 1513 1517 1520 1524 1528 1531 1535 1538 1541 1543 1546 1547 1549 1550 1551 1552 1553 1553 1554 1554 1555 1555 1555 1555 1555 1555 1554
1493 1497 1492 1480 1474 1474 1480 1483 1479 1481 1484 1488 1492 1496 1501 1504 1507 1511 1515 1519 1522 1526 1529 1533 1536 1539 1542 1544 1546 1547 1549 1550 1550 1551 1552 1552 1553 1553 1553 1554 1554 1554 1553 1553
1490 1497 1498 1482 1473 1473 1478 1486 1480 1480 1484 1487 1491 1498 1501 1503 1507 1511 1514 1518 1522 1525 1528 1531 1535 1538 1540 1542 1544 1545 1547 1548 1549 1549 1550 1550 1551 1551 1552 1552 1552 1552 1552 1552
1490 1492 1485 1475 1473 1475 1489 1488 1480 1481 1484 1487 1491 1494 1499 1502 1505 1509 1513 1517 1520 1523 1526 1530 1533 1536 1538 1540 1542 1544 1545 1546 1547 1547 1548 1549 1549 1550 1550 1550 1550 1550 1550 1550
1483 1490 1489 1475 1475 1479 1482 1479 1480 1482 1485 1488 1492 1494 1497 1501 1504 1508 1512 1515 1519 1522 1525 1529 1532 1534 1536 1539 1540 1542 1543 1545 1545 1546 1547 1547 1548 1548 1548 1548 1548 1548 1548 1548
1476 1481 1477 1476 1477 1478 1479 1481 1482 1484 1486 1489 1492 1495 1498 1501 1505 1508 1511 1514 1518 1521 1524 1527 1530 1532 1535 1537 1539 1540 1541 1543 1544 1545 1545 1545 1546 1546 1546 1546 1546 1546 1546 1546
1472 1473 1474 1476 1477 1479 1481 1482 1483 1485 1487 1490 1492 1495 1498 1501 1504 1507 1510 1513 1517 1520 1522 1525 1528 1531 1533 1535 1537 1538 1540 1541 1542 1543 1543 1544 1544 1544 1544 1544 1544 1544 1543 1543
1471 1473 1475 1476 1477 1479 1481 1482 1484 1486 1488 1490 1493 1496 1498 1501 1504 1507 1510 1513 1515 1518 1521 1524 1526 1529 1531 1533 1534 1536 1538 1539 1540 1541 1541 1542 1542 1542 1542 1542 1542 1542 1541 1540
1471 1471 1473 1475 1477 1479 1481 1482 1484 1486 1488 1491 1493 1495 1498 1500 1503 1506 1509 1511 1514 1517 1520 1522 1525 1527 1529 1531 1532 1534 1536 1537 1538 1538 1539 1539 1539 1540 1540 1540 1539 1539 1538 1537
1467 1469 1471 1474 1476 1478 1480 1481 1483 1485 1488 1490 1492 1495 1497 1500 1502 1505 1508 1510 1513 1515 1518 1520 1523 1525 1527 1529 1531 1533 1534 1535 1535 1536 1536 1537 1537 1537 1537 1537 1536 1536 1535 1534
1467 1469 1472 1474 1476 1477 1479 1481 1483 1485 1487 1489 1492 1494 1496 1499 1501 1504 1506 1509 1512 1514 1516 1519 1521 1523 1525 1527 1529 1530 1532 1532 1533 1533 1534 1534 1534 1534 1534 1533 1533 1532 1531 1530
1467 1469 1471 1473 1475 1477 1478 1480 1482 1484 1486 1489 1491 1493 1495 1497 1500 1503 1505 1508 1510 1513 1515 1517 1519 1522 1524 1525 1526 1528 1529 1530 1530 1531 1531 1531 1532 1531 1531 1531 1530 1529 1527 1526
1466 1468 1470 1472 1473 1475 1477 1479 1481 1483 1485 1487 1489 1492 1494 1496 1499 1502 1504 1506 1508 1510 1513 1515 1517 1519 1521 1522 1524 1525 1527 1527 1528 1528 1528 1529 1529 1528 1528 1527 1526 1525 1524 1522
1464 1465 1468 1470 1471 1473 1475 1477 1479 1481 1483 1486 1488 1490 1493 1495 1498 1500 1503 1505 1507 1509 1511 1513 1515 1517 1519 1520 1522 1523 1524 1524 1525 1525 1525 1525 1525 1525 1525 1524 1523 1522 1520 1519
1462 1463 1465 1467 1469 1471 1473 1475 1477 1479 1482 1484 1486 1489 1491 1493 1495 1498 1501 1503 1506 1508 1510 1511 1513 1515 1516 1518 1519 1520 1521 1521 1522 1522 1522 1522 1522 1522 1521 1520 1519 1518 1516 1514
1459 1461 1463 1465 1467 1469 1471 1473 1475 1477 1480 1482 1484 1487 1489 1491 1494 1496 1499 1501 1503 1505 1507 1509 1510 1512 1514 1515 1516 1517 1518 1518 1519 1519 1519 1519 1519 1518 1517 1516 1515 1514 1512 1510
1457 1459 1461 1463 1465 1467 1469 1471 1473 1475 1477 1480 1482 1484 1487 1489 1492 1494 1496 1498 1500 1502 1504 1506 1508 1509 1511 1512 1513 1514 1514 1515 1515 1516 1516 1515 1515 1514 1514 1512 1511 1509 1508 1506
1455 1457 1459 1461 1463 1465 1467 1469 1471 1473 1475 1478 1480 1482 1484 1487 1489 1491 1493 1496 1498 1500 1501 1503 1505 1506 1508 1509 1510 1510 1511 1512 1512 1512 1512 1512 1511 1510 1509 1508 1507 1505 1503 1501
1454 1456 1457 1459 1461 1463 1465 1467 1469 1471 1473 1476 1478 1480 1482 1485 1487 1489 1491 1493 1495 1497 1499 1500 1502 1503 1504 1505 1506 1507 1507 1508 1508 1509 1508 1508 1507 1506 1505 1504 1502 1500 1498 1496
1452 1454 1456 1457 1459 1461 1463 1465 1467 1469 1471 1473 1475 1478 1480 1482 1484 1486 1488 1490 1492 1494 1495 1497 1499 1500 1501 1502 1502 1503 1504 1504 1505 1505 1504 1504 1503 1502 1501 1499 1497 1495 1493 1491
1450 1452 1454 1456 1458 1460 1462 1463 1465 1467 1469 1472 1474 1476 1478 1480 1482 1484 1486 1488 1489 1491 1492 1494 1496 1497 1498 1499 1499 1500 1500 1501 1501 1501 1500 1499 1498 1497 1496 1494 1492 1490 1488 1485
1449 1451 1452 1454 1456 1458 1460 1462 1464 1466 1468 1470 1473 1475 1477 1478 1480 1482 1484 1486 1487 1488 1490 1492 1493 1494 1495 1496 1497 1497 1497 1497 1497 1497 1496 1495 1494 1492 1491 1489 1487 1485 1482 1480
1448 1449 1451 1453 1455 1456 1458 1460 1462 1464 1466 1468 1471 1473 1475 1477 1478 1480 1482 1484 1485 1487 1488 1489 1490 1491 1492 1493 1493 1493 1493 1493 1493 1493 1492 1491 1489 1488 1486 1484 1482 1480 1477 1474
1446 1448 1449 1451 1453 1455 1457 1458 1460 1462 1464 1466 1469 1471 1473 1475 1476 1478 1480 1482 1483 1484 1486 1487 1487 1488 1489 1490 1490 1490 1490 1489 1489 1488 1487 1486 1485 1483 1481 1479 1476 1474 1471 1468